Location: Alessandria
(44.9000°N, 8.6170°E)
Time: 03:00:19
(UTC+02:00)

ISS - Pass Details

Date: 12 May 2021
Orbit: 417 x 422 km, 51.6° (Epoch: 14 June)

Event Time Altitude Azimuth Distance (km) Brightness Sun altitude
Exits shadow 01:17:37 14° 48° (NE) 1,268 -0.9 -27.0°
Drops below altitude 10° 01:18:15 10° 52° (NE) 1,508 -0.5 -27.0°
Sets 01:20:27 0° 60° (ENE) 2,375 0.4 -27.0°
